Weather History for KRUT - May, 2013

Change the Weather History Date:

Saturday, May 25, 2013

  Actual Average Record
Temperature  
Mean Temperature 40 °F -  
Max Temperature 43 °F - 86 °F (1972)
Min Temperature 37 °F - 26 °F (1956)
Degree Days  
Heating Degree Days 25    
Month to date heating degree days 216  
Since 1 July heating degree days 6776  
Cooling Degree Days 0    
Month to date cooling degree days 10  
Year to date cooling degree days 10  
Moisture  
Dew Point 39 °F    
Average Humidity 91    
Maximum Humidity 96    
Minimum Humidity 85    
Precipitation  
Precipitation 0.68 in - 2.94 in (1955)
Month to date precipitation 2.59  
Year to date precipitation 7.10  
Sea Level Pressure  
Sea Level Pressure 29.90 in    
Wind  
Wind Speed 11 mph (NNW)    
Max Wind Speed 16 mph    
Max Gust Speed 30 mph    
Visibility 10 miles    
Events      
T = Trace of Precipitation, MM = Missing Value Source: NWS Daily Summary

Daily Weather History Graph

Daily Weather History Graph

Search for Another Location

Airport or City:

Trip Planner

Search our weather history database for the weather conditions in past years. The results will help you decide how hot, cold, wet, or windy it might be!

Date:

Astronomy

May. 25, 2013 Rise Set
Actual Time 5:17 AM EDT 8:20 PM EDT
Civil Twilight 4:43 AM EDT 8:54 PM EDT
Nautical Twilight 3:59 AM EDT 9:38 PM EDT
Astronomical Twilight 3:07 AM EDT 10:30 PM EDT
Moon 9:04 PM EDT (5/25) 5:42 AM EDT (5/25)
Length of Visible Light 16h 10m
Length of Day
15h 02m
Full, 100% of the Moon is Illuminated
May 25
Full
May 31
Last Quarter
Jun 8
New
Jun 16
First Quarter
Jun 23
Full

Hourly Weather History & Observations

Time (EDT) Temp. Windchill Dew Point Humidity Pressure Visibility Wind Dir Wind Speed Gust Speed Precip Events Conditions
12:15 AM 42.8 °F 41.1 °F 41.0 °F 93% 29.96 in 7.0 mi NNW 3.5 mph - N/A   Overcast
12:35 AM 42.8 °F 38.0 °F 39.2 °F 87% 29.95 in 9.0 mi NNW 8.1 mph - 0.01 in   Overcast
12:55 AM 42.8 °F 38.0 °F 41.0 °F 93% 29.93 in 10.0 mi NNW 8.1 mph - 0.01 in   Overcast
1:15 AM 42.8 °F 38.0 °F 41.0 °F 93% 29.93 in 5.0 mi NNW 8.1 mph - N/A   Overcast
1:35 AM 42.8 °F 40.1 °F 41.0 °F 93% 29.94 in 7.0 mi NW 4.6 mph - 0.01 in   Overcast
1:55 AM 42.8 °F 36.2 °F 41.0 °F 93% 29.95 in 7.0 mi NW 12.7 mph - 0.03 in   Overcast
2:15 AM 42.8 °F 38.6 °F 41.0 °F 93% 29.94 in 10.0 mi NNW 6.9 mph - 0.05 in   Overcast
2:35 AM 42.8 °F 38.0 °F 41.0 °F 93% 29.93 in 9.0 mi NNW 8.1 mph 16.1 mph 0.09 in   Overcast
2:55 AM 42.8 °F 37.5 °F 41.0 °F 93% 29.92 in 10.0 mi NNW 9.2 mph - 0.10 in   Overcast
3:15 AM 42.8 °F 37.5 °F 41.0 °F 93% 29.92 in 10.0 mi NNW 9.2 mph - 0.02 in   Overcast
3:35 AM 42.8 °F 38.6 °F 41.0 °F 93% 29.91 in 10.0 mi NNW 6.9 mph 17.3 mph 0.04 in   Overcast
3:55 AM 42.8 °F 39.3 °F 41.0 °F 93% 29.91 in 10.0 mi NNW 5.8 mph - 0.05 in   Overcast
4:15 AM 42.8 °F 38.6 °F 41.0 °F 93% 29.90 in 10.0 mi NNW 6.9 mph 17.3 mph N/A   Overcast
4:35 AM 42.8 °F 38.0 °F 39.2 °F 87% 29.90 in 10.0 mi NNW 8.1 mph - 0.01 in   Overcast
4:55 AM 42.8 °F 37.5 °F 39.2 °F 87% 29.90 in 10.0 mi NNW 9.2 mph - 0.01 in   Overcast
5:15 AM 42.8 °F 37.0 °F 39.2 °F 87% 29.89 in 10.0 mi NNW 10.4 mph 18.4 mph N/A   Overcast
5:35 AM 42.8 °F 37.0 °F 39.2 °F 87% 29.89 in 10.0 mi NNW 10.4 mph 16.1 mph 0.01 in   Overcast
5:55 AM 41.0 °F 35.2 °F 39.2 °F 93% 29.89 in 10.0 mi NNW 9.2 mph 17.3 mph 0.01 in   Overcast
6:15 AM 41.0 °F 35.8 °F 39.2 °F 93% 29.90 in 10.0 mi NNW 8.1 mph - 0.01 in   Overcast
6:35 AM 41.0 °F 34.3 °F 39.2 °F 93% 29.90 in 10.0 mi NW 11.5 mph 16.1 mph 0.02 in   Overcast
6:55 AM 41.0 °F 33.9 °F 39.2 °F 93% 29.91 in 10.0 mi NNW 12.7 mph 17.3 mph 0.02 in   Overcast
7:15 AM 41.0 °F 33.5 °F 37.4 °F 87% 29.91 in 10.0 mi NNW 13.8 mph 18.4 mph N/A   Overcast
7:35 AM 41.0 °F 35.2 °F 39.2 °F 93% 29.91 in 10.0 mi North 9.2 mph 19.6 mph 0.01 in   Overcast
7:55 AM 41.0 °F 34.7 °F 39.2 °F 93% 29.90 in 9.0 mi NNW 10.4 mph - 0.02 in   Overcast
8:15 AM 41.0 °F 35.2 °F 39.2 °F 93% 29.90 in 10.0 mi NNW 9.2 mph 16.1 mph N/A   Overcast
8:35 AM 42.8 °F 37.0 °F 39.2 °F 87% 29.89 in 10.0 mi NNW 10.4 mph 17.3 mph 0.01 in   Overcast
8:55 AM 42.8 °F 35.8 °F 39.2 °F 87% 29.89 in 10.0 mi NW 13.8 mph 17.3 mph 0.02 in   Overcast
9:15 AM 42.8 °F 37.0 °F 41.0 °F 93% 29.89 in 10.0 mi NNW 10.4 mph 19.6 mph N/A   Overcast
9:35 AM 42.8 °F 37.5 °F 39.2 °F 87% 29.89 in 10.0 mi NNW 9.2 mph 16.1 mph 0.02 in   Overcast
9:55 AM 42.8 °F 36.2 °F 39.2 °F 87% 29.89 in 10.0 mi NNW 12.7 mph 19.6 mph 0.04 in   Overcast
10:15 AM 42.8 °F 37.0 °F 39.2 °F 87% 29.89 in 9.0 mi NNW 10.4 mph 16.1 mph 0.03 in   Overcast
10:35 AM 42.8 °F 37.5 °F 39.2 °F 87% 29.89 in 8.0 mi NW 9.2 mph 17.3 mph 0.06 in   Overcast
10:55 AM 42.8 °F 37.5 °F 39.2 °F 87% 29.89 in 9.0 mi NNW 9.2 mph 18.4 mph 0.08 in   Overcast
11:15 AM 42.8 °F 35.8 °F 39.2 °F 87% 29.88 in 10.0 mi NW 13.8 mph 20.7 mph 0.01 in   Overcast
11:35 AM 42.8 °F 36.6 °F 39.2 °F 87% 29.88 in 10.0 mi NNW 11.5 mph 20.7 mph 0.02 in   Overcast
11:55 AM 42.8 °F 37.5 °F 39.2 °F 87% 29.89 in 10.0 mi NNW 9.2 mph 19.6 mph 0.04 in   Overcast
12:15 PM 41.0 °F 35.8 °F 39.2 °F 93% 29.88 in 9.0 mi NNW 8.1 mph 20.7 mph 0.02 in   Overcast
12:35 PM 41.0 °F 33.9 °F 39.2 °F 93% 29.88 in 10.0 mi NW 12.7 mph 19.6 mph 0.04 in   Overcast
12:55 PM 41.0 °F 32.8 °F 39.2 °F 93% 29.88 in 10.0 mi NNW 16.1 mph 26.5 mph 0.07 in   Overcast
1:15 PM 41.0 °F 32.8 °F 39.2 °F 93% 29.88 in 10.0 mi NNW 16.1 mph 24.2 mph 0.02 in   Overcast
1:35 PM 41.0 °F 33.5 °F 39.2 °F 93% 29.88 in 10.0 mi NNW 13.8 mph 26.5 mph 0.04 in   Overcast
1:55 PM 41.0 °F 34.3 °F 37.4 °F 87% 29.89 in 10.0 mi NNW 11.5 mph 23.0 mph 0.07 in   Overcast
2:15 PM 39.2 °F 30.2 °F 37.4 °F 93% 29.89 in 10.0 mi NNW 17.3 mph 27.6 mph 0.01 in   Overcast
2:35 PM 39.2 °F 30.2 °F 37.4 °F 93% 29.90 in 10.0 mi NNW 17.3 mph 21.9 mph 0.01 in   Overcast
2:55 PM 39.2 °F 30.5 °F 37.4 °F 93% 29.90 in 10.0 mi NNW 16.1 mph 29.9 mph 0.02 in   Overcast
3:15 PM 39.2 °F 31.2 °F 37.4 °F 93% 29.90 in 10.0 mi NNW 13.8 mph 24.2 mph N/A   Mostly Cloudy
3:35 PM 39.2 °F 31.2 °F 37.4 °F 93% 29.90 in 10.0 mi NNW 13.8 mph 24.2 mph N/A   Overcast
3:55 PM 39.2 °F 30.5 °F 37.4 °F 93% 29.90 in 10.0 mi NNW 16.1 mph 23.0 mph N/A   Overcast
4:15 PM 41.0 °F 33.1 °F 37.4 °F 87% 29.90 in 10.0 mi NNW 15.0 mph 21.9 mph 0.01 in   Mostly Cloudy
4:35 PM 41.0 °F 32.8 °F 37.4 °F 87% 29.89 in 10.0 mi NNW 16.1 mph 25.3 mph 0.01 in   Mostly Cloudy
4:55 PM 39.2 °F 32.0 °F 37.4 °F 93% 29.89 in 10.0 mi NNW 11.5 mph 23.0 mph 0.01 in   Overcast
5:15 PM 39.2 °F 31.2 °F 37.4 °F 93% 29.89 in 10.0 mi NNW 13.8 mph 24.2 mph N/A   Overcast
5:35 PM 39.2 °F 30.5 °F 37.4 °F 93% 29.89 in 9.0 mi NNW 16.1 mph 23.0 mph N/A   Overcast
5:55 PM 39.2 °F 31.2 °F 35.6 °F 87% 29.90 in 10.0 mi NNW 13.8 mph 23.0 mph 0.01 in   Overcast
6:15 PM 39.2 °F 30.8 °F 37.4 °F 93% 29.90 in 10.0 mi NNW 15.0 mph 21.9 mph N/A   Mostly Cloudy
6:35 PM 39.2 °F 32.0 °F 37.4 °F 93% 29.90 in 10.0 mi NNW 11.5 mph 20.7 mph N/A   Overcast
6:55 PM 39.2 °F 32.0 °F 37.4 °F 93% 29.90 in 10.0 mi NNW 11.5 mph 20.7 mph N/A   Overcast
7:15 PM 39.2 °F 31.2 °F 37.4 °F 93% 29.90 in 10.0 mi NNW 13.8 mph 20.7 mph N/A   Overcast
7:35 PM 39.2 °F 30.8 °F 35.6 °F 87% 29.90 in 10.0 mi NNW 15.0 mph 20.7 mph N/A   Overcast
7:55 PM 39.2 °F 32.5 °F 35.6 °F 87% 29.90 in 10.0 mi North 10.4 mph 18.4 mph N/A   Overcast
8:15 PM 39.2 °F 32.5 °F 37.4 °F 93% 29.90 in 10.0 mi NNW 10.4 mph 16.1 mph N/A   Overcast
8:35 PM 39.2 °F 32.0 °F 37.4 °F 93% 29.90 in 10.0 mi NNW 11.5 mph 21.9 mph N/A   Overcast
8:55 PM 39.2 °F 31.6 °F 37.4 °F 93% 29.90 in 10.0 mi NNW 12.7 mph 19.6 mph N/A   Overcast
9:15 PM 39.2 °F 31.6 °F 37.4 °F 93% 29.89 in 10.0 mi NNW 12.7 mph 26.5 mph N/A   Overcast
9:35 PM 39.2 °F 32.5 °F 37.4 °F 93% 29.89 in 10.0 mi NNW 10.4 mph 17.3 mph N/A   Overcast
9:55 PM 39.2 °F 33.0 °F 37.4 °F 93% 29.88 in 10.0 mi NNW 9.2 mph - N/A   Overcast
10:15 PM 39.2 °F 33.0 °F 37.4 °F 93% 29.88 in 10.0 mi NNW 9.2 mph - 0.01 in   Overcast
10:35 PM 39.2 °F 32.0 °F 37.4 °F 93% 29.88 in 10.0 mi North 11.5 mph 16.1 mph 0.01 in   Overcast
10:55 PM 39.2 °F 33.6 °F 35.6 °F 87% 29.88 in 10.0 mi NNW 8.1 mph 24.2 mph 0.03 in   Overcast
11:15 PM 39.2 °F 30.5 °F 35.6 °F 87% 29.87 in 10.0 mi NW 16.1 mph 23.0 mph 0.01 in   Overcast
11:35 PM 37.4 °F 30.3 °F 35.6 °F 93% 29.87 in 10.0 mi North 10.4 mph 21.9 mph 0.05 in   Overcast
11:55 PM 37.4 °F 30.8 °F 35.6 °F 93% 29.86 in 10.0 mi North 9.2 mph - 0.05 in   Overcast